Raton, NM

8:07 PM MST on November 23, 2017 (GMT -0700)
Raton Municipal-Crews

Weather History for KRTN - April, 2013

Change the Weather History Date:

Wednesday, April 24, 2013

  Actual Average (KTAD) Record (KTAD)
Temperature  
Mean Temperature 41 °F -  
Max Temperature 57 °F 70 °F 89 °F (2012)
Min Temperature 25 °F 38 °F 17 °F (2013)
Degree Days  
Heating Degree Days 24    
Moisture  
Dew Point 23 °F    
Average Humidity 62    
Maximum Humidity 88    
Minimum Humidity 23    
Precipitation  
Precipitation 0.00 in - - ()
Sea Level Pressure  
Sea Level Pressure 30.20 in    
Wind  
Wind Speed 3 mph (SSE)    
Max Wind Speed 13 mph    
Max Gust Speed -    
Visibility 10 miles    
Events      
Averages and records for this station are not official NWS values.
T = Trace of Precipitation, MM = Missing Value Source: NWS Daily Summary

Daily Weather History Graph

Daily Weather History Graph

Search for Another Location

Airport or City:

Trip Planner

Search our weather history database for the weather conditions in past years. The results will help you decide how hot, cold, wet, or windy it might be!

Date:

Astronomy

Apr. 24, 2013 Rise Set
Actual Time 6:12 AM MDT 7:40 PM MDT
Civil Twilight 5:44 AM MDT 8:08 PM MDT
Nautical Twilight 5:12 AM MDT 8:40 PM MDT
Astronomical Twilight 4:37 AM MDT 9:15 PM MDT
Moon 6:47 PM MDT 5:15 AM MDT
Length of Visible Light 14h 23m
Length of Day
13h 28m
Waxing Gibbous, 98% of the Moon is Illuminated
Apr 24
Waxing Gibbous
Apr 25
Full
May 2
Last Quarter
May 9
New
May 17
First Quarter

Hourly Weather History & Observations

Time (MDT) Temp. Windchill Dew Point Humidity Pressure Visibility Wind Dir Wind Speed Gust Speed Precip Events Conditions
12:53 AM 28.0 °F 22.8 °F 21.9 °F 78% 30.25 in 10.0 mi WSW 4.6 mph - N/A   Overcast
1:39 AM 28.4 °F - 23.0 °F 80% 30.21 in 10.0 mi Calm Calm - N/A   Overcast
1:53 AM 28.0 °F 24.2 °F 23.0 °F 81% 30.27 in 10.0 mi South 3.5 mph - N/A   Overcast
2:53 AM 27.0 °F - 23.0 °F 85% 30.23 in 10.0 mi Calm Calm - N/A   Overcast
3:53 AM 26.1 °F - 23.0 °F 88% 30.24 in 10.0 mi Calm Calm - N/A   Overcast
4:53 AM 26.1 °F - 23.0 °F 88% 30.24 in 10.0 mi Calm Calm - N/A   Overcast
5:53 AM 26.1 °F 21.9 °F 23.0 °F 88% 30.24 in 10.0 mi Variable 3.5 mph - N/A   Overcast
6:53 AM 25.0 °F 20.7 °F 21.9 °F 88% 30.26 in 10.0 mi ENE 3.5 mph - N/A   Overcast
7:53 AM 27.0 °F - 23.0 °F 85% 30.28 in 10.0 mi Calm Calm - N/A   Overcast
8:53 AM 28.0 °F 22.8 °F 24.1 °F 85% 30.26 in 10.0 mi SW 4.6 mph - N/A   Overcast
9:53 AM 30.0 °F - 24.1 °F 79% 30.26 in 10.0 mi Calm Calm - N/A   Overcast
10:53 AM 33.1 °F 28.7 °F 27.0 °F 78% 30.24 in 10.0 mi South 4.6 mph - N/A   Overcast
11:12 AM 33.8 °F 30.8 °F 28.4 °F 81% 30.21 in 10.0 mi Variable 3.5 mph - N/A   Overcast
11:53 AM 37.0 °F 31.0 °F 28.0 °F 70% 30.22 in 10.0 mi SSW 8.1 mph - N/A   Mostly Cloudy
12:12 PM 39.2 °F 34.2 °F 28.4 °F 65% 30.19 in 10.0 mi SSW 6.9 mph - N/A   Partly Cloudy
12:53 PM 41.0 °F - 27.0 °F 57% 30.17 in 10.0 mi Calm Calm - N/A   Clear
1:53 PM 45.0 °F 41.8 °F 27.0 °F 49% 30.13 in 10.0 mi SE 5.8 mph - N/A   Clear
2:53 PM 50.0 °F - 25.0 °F 38% 30.10 in 10.0 mi SSW 6.9 mph - N/A   Clear
3:53 PM 53.1 °F - 23.0 °F 31% 30.07 in 10.0 mi Variable 3.5 mph - N/A   Clear
4:53 PM 55.9 °F - 21.9 °F 27% 30.05 in 10.0 mi ENE 4.6 mph - N/A   Clear
5:53 PM 57.0 °F - 19.9 °F 24% 30.04 in 10.0 mi ENE 5.8 mph - N/A   Clear
6:53 PM 55.0 °F - 18.0 °F 23% 30.07 in 10.0 mi ENE 12.7 mph - N/A   Clear
7:53 PM 48.0 °F - 18.0 °F 30% 30.14 in 10.0 mi ENE 8.1 mph - N/A   Clear
8:53 PM 44.1 °F 41.5 °F 21.0 °F 40% 30.21 in 10.0 mi North 4.6 mph - N/A   Clear
9:53 PM 42.1 °F 40.2 °F 19.9 °F 41% 30.24 in 10.0 mi Variable 3.5 mph - N/A   Clear
10:53 PM 42.1 °F - 21.0 °F 43% 30.23 in 10.0 mi Calm Calm - N/A   Clear
11:53 PM 37.0 °F 32.4 °F 21.9 °F 54% 30.22 in 10.0 mi West 5.8 mph - N/A   Clear